Weather in Eyndchoven

Netherlands     51°26′04″N   5°29′09″E
temp.,
°C
wind,
m/s
gust,
m/s
humid.,
%
clouds,
%
prec.,
mm/h
press.,
hPa
HPBL,
m
26 june, sun
sun2623:00+16nne1195100 3.4 101249
02:00+16sw2696100 3.5 1012272
05:00+15sw3896100 0.0 1013408
08:00+15sw478385 0.0 1015382
11:00+19sw355492 0.0 10161065
14:00+21ssw3447100 0.0 10161442
17:00+22se5551100 0.0 10161468
20:00+20sse336376 0.0 1015729
27 june, mon
mon2723:00+17ese2280100 0.1 101643
02:00+16sse2489100 0.3 1016116
05:00+15sse2591100 0.0 1015142
08:00+17wsw3474100 0.0 1015259
11:00+19sw4666100 0.1 1016688
14:00+19w4660100 0.1 1018968
17:00+20w2455100 0.0 10191213
20:00+18ene227046 0.6 101953
28 june, tue
tue2823:00+15nw3586100 0.9 1021116
02:00+13nw11805 1.0 102110
05:00+12ssw22825 0.0 102216
08:00+15sw22740 0.0 1022211
11:00+20ssw23510 0.0 10211069
14:00+24sse34380 0.0 10192139
17:00+25se34354 0.0 10182293
20:00+25se124446 0.0 1017884
29 june, wed
wed2923:00+20se2257100 0.0 101743
02:00+18sse2458100 0.0 101768
05:00+16s226391 0.0 101625
08:00+19s23585 0.0 1016184
11:00+25sw3444100 0.0 10161039
14:00+28ssw24356 0.0 10152329
17:00+29s343121 0.0 10132641
20:00+27ssw124045 0.0 1013558
30 june, thu
thu3023:00+22e225255 0.0 101325
02:00+19ese11650 0.0 101311
05:00+18ese22690 0.0 101223
08:00+21s23540 0.0 1012186
11:00+27ese34425 0.0 1011757
14:00+31se353716 0.0 10092749
17:00+28se235069 0.1 1008218
20:00+25wnw4563100 0.6 1007149